Location: Risskov
(56.1972°N, 10.2480°E)
Time: 23:28:03
(UTC+00:00)

Cosmos 1943 Rocket - Pass Details

Date: 05 July 2020
Orbit: 811 x 845 km, 71.0° (Epoch: 14 August)

Event Time Altitude Azimuth Distance (km) Brightness Sun altitude
Rises 21:07:00 0° 320° (NW) 3,415 7.7 -6.0°
Reaches altitude 10° 21:09:44 10° 331° (NNW) 2,479 6.5 -6.2°
Maximum altitude 21:14:47 32° 33° (NNE) 1,435 3.7 -6.5°
Drops below altitude 10° 21:19:50 10° 96° (E) 2,468 4.3 -6.9°
Sets 21:22:33 0° 106° (ESE) 3,398 4.9 -7.1°
